EW1857 Weather Reports


Display with metric or nautical units.
time (UTC)temp
F
wind
direction
speed
MPH
gust
MPH
rain 1hr
in
rain 24hr
in
rain mn
in
humidity
%
barometer
mb
20260503004619 48 0.0 0.0 0.00 0.00 0.00 71 1013.4
20260503003625 48 0.0 0.0 0.00 0.00 0.00 71 1013.4
20260503002917 48 0.0 0.0 0.00 0.00 0.00 70 1013.5
20260503001826 48 0.0 0.0 0.00 0.00 0.00 70 1013.5
20260503000824 49 0.0 0.0 0.00 0.00 0.00 70 1014.0
20260502235917 49 0.0 0.0 0.00 0.00 0.00 70 1014.0
20260502234921 49 0.0 0.0 0.00 0.00 0.00 69 1013.9
20260502234422 49 0.0 0.0 0.00 0.00 0.00 69 1013.9
20260502233321 49 0.0 0.0 0.00 0.00 0.00 68 1013.9
20260502232717 49 0.0 0.0 0.00 0.00 0.00 68 1014.0
20260502231724 50 0.0 0.0 0.00 0.00 0.00 69 1014.0
20260502230425 50 0.0 0.0 0.00 0.00 0.00 67 1014.1
20260502225926 50 0.0 0.0 0.00 0.00 0.00 68 1014.1
20260502225423 50 0.0 0.0 0.00 0.00 0.00 68 1014.1
20260502224924 50 0.0 0.0 0.00 0.00 0.00 68 1014.3
20260502224218 51 0.0 0.0 0.00 0.00 0.00 67 1014.3
20260502222916 51 0.0 0.0 0.00 0.00 0.00 66 1014.4
20260502221923 51 0.0 0.0 0.00 0.00 0.00 66 1014.4
20260502220924 52 0.0 0.0 0.00 0.00 0.00 66 1014.5
20260502215917 52 0.0 0.0 0.00 0.00 0.00 65 1014.5
20260502214920 52 0.0 0.0 0.00 0.00 0.00 65 1014.4
20260502214430 52 0.0 0.0 0.00 0.00 0.00 65 1014.4
20260502213415 53 0.0 0.0 0.00 0.00 0.00 65 1014.4
20260502212416 53 0.0 0.0 0.00 0.00 0.00 64 1014.5
20260502211319 53 0.0 0.0 0.00 0.00 0.00 64 1014.5
20260502210420 54 0.0 0.0 0.00 0.00 0.00 64 1014.5
20260502205923 54 0.0 0.0 0.00 0.00 0.00 63 1014.5
20260502205425 54 0.0 0.0 0.00 0.00 0.00 62 1014.4
20260502204925 54 0.0 0.0 0.00 0.00 0.00 62 1014.9
20260502203918 55 0.0 0.0 0.00 0.00 0.00 61 1014.9
20260502203424 55 0.0 0.0 0.00 0.00 0.00 61 1014.9
20260502202923 55 0.0 0.0 0.00 0.00 0.00 61 1014.7
20260502202424 55 0.0 0.0 0.00 0.00 0.00 61 1014.6
20260502201725 55 0.0 0.0 0.00 0.00 0.00 61 1014.6
20260502200718 56 0.0 0.0 0.00 0.00 0.00 60 1014.6
20260502195924 57 0.0 0.0 0.00 0.00 0.00 57 1014.6
20260502194916 57 0.0 0.0 0.00 0.00 0.00 57 1014.6
20260502193921 57 0.0 0.0 0.00 0.00 0.00 56 1014.6
20260502193425 57 0.0 0.0 0.00 0.00 0.00 56 1014.6
20260502192925 58 0.0 0.0 0.00 0.00 0.00 56 1014.6
20260502191920 58 0.0 0.0 0.00 0.00 0.00 55 1014.6
20260502190518 59 0.0 0.0 0.00 0.00 0.00 54 1014.3
20260502185416 59 0.0 0.0 0.00 0.00 0.00 52 1014.3
20260502184925 60 0.0 0.0 0.00 0.00 0.00 51 1014.0
20260502183917 60 0.0 0.0 0.00 0.00 0.00 49 1013.9
20260502182919 61 0.0 0.0 0.00 0.00 0.00 48 1013.9
20260502182025 62 0.0 0.0 0.00 0.00 0.00 46 1013.9
20260502181022 63 0.0 0.0 0.00 0.00 0.00 43 1014.0
20260502170425 67 0.0 0.0 0.00 0.00 0.00 35 1013.8
20260502163420 68 0.0 0.0 0.00 0.00 0.00 34 1013.9
20260502162925 68 0.0 0.0 0.00 0.00 0.00 34 1014.4
20260502161920 68 0.0 0.0 0.00 0.00 0.00 34 1014.4
20260502160924 68 0.0 0.0 0.00 0.00 0.00 34 1014.4
20260502151417 69 0.0 0.0 0.00 0.00 0.00 33 1014.7
20260502150521 70 0.0 0.0 0.00 0.00 0.00 33 1014.8
20260502130423 72 0.0 0.0 0.00 0.00 0.00 34 1016.6
20260502123417 73 0.0 0.0 0.00 0.00 0.00 34 1016.9
20260502122426 73 0.0 0.0 0.00 0.00 0.00 34 1017.2
20260502121923 73 0.0 0.0 0.00 0.00 0.00 33 1017.2
20260502121423 73 0.0 0.0 0.00 0.00 0.00 34 1017.2
20260502120419 74 0.0 0.0 0.00 0.00 0.00 33 1017.3
20260502115924 74 0.0 0.0 0.00 0.00 0.00 33 1017.3
20260502115426 74 0.0 0.0 0.00 0.00 0.00 34 1017.3
20260502114923 74 0.0 0.0 0.00 0.00 0.00 35 1017.6
20260502113919 74 0.0 0.0 0.00 0.00 0.00 33 1017.6
20260502113424 74 0.0 0.0 0.00 0.00 0.00 34 1017.6
20260502112925 75 0.0 0.0 0.00 0.00 0.00 32 1017.9
20260502111919 75 0.0 0.0 0.00 0.00 0.00 34 1017.9
20260502111417 75 0.0 0.0 0.00 0.00 0.00 34 1017.9
20260502110927 75 0.0 0.0 0.00 0.00 0.00 34 1018.1
20260502105926 75 0.0 0.0 0.00 0.00 0.00 35 1018.1
20260502105423 75 0.0 0.0 0.00 0.00 0.00 37 1018.1
20260502104324 74 0.0 0.0 0.00 0.00 0.00 34 1018.5
20260502103323 73 0.0 0.0 0.00 0.00 0.00 35 1018.5
20260502102222 73 0.0 0.0 0.00 0.00 0.00 35 1018.8
20260502101124 74 0.0 0.0 0.00 0.00 0.00 34 1018.9
20260502100426 74 0.0 0.0 0.00 0.00 0.00 35 1019.0
20260502090918 72 0.0 0.0 0.00 0.00 0.00 38 1019.7
20260502090424 72 0.0 0.0 0.00 0.00 0.00 38 1019.7
20260502071425 61 0.0 0.0 0.00 0.00 0.00 58 1019.9
20260502070526 60 0.0 0.0 0.00 0.00 0.00 60 1020.1
20260502065422 58 0.0 0.0 0.00 0.00 0.00 62 1020.1
20260502064925 58 0.0 0.0 0.00 0.00 0.00 62 1020.3
20260502063916 56 0.0 0.0 0.00 0.00 0.00 63 1020.3
20260502062916 55 0.0 0.0 0.00 0.00 0.00 64 1020.4
20260502062424 55 0.0 0.0 0.00 0.00 0.00 65 1020.4
20260502061925 54 0.0 0.0 0.00 0.00 0.00 65 1020.3
20260502061426 53 0.0 0.0 0.00 0.00 0.00 66 1020.3
20260502060916 53 0.0 0.0 0.00 0.00 0.00 67 1020.4
20260502060424 52 0.0 0.0 0.00 0.00 0.00 68 1020.4
20260502055924 51 0.0 0.0 0.00 0.00 0.00 69 1020.4
20260502055424 51 0.0 0.0 0.00 0.00 0.00 69 1020.4
20260502054420 50 0.0 0.0 0.00 0.00 0.00 70 1020.1
20260502053924 49 0.0 0.0 0.00 0.00 0.00 70 1020.1
20260502052922 49 0.0 0.0 0.00 0.00 0.00 71 1019.6
20260502052426 48 0.0 0.0 0.00 0.00 0.00 71 1019.6
20260502051416 47 0.0 0.0 0.00 0.00 0.00 72 1019.5
20260502050418 47 0.0 0.0 0.00 0.00 0.00 72 1019.7
20260502045927 46 0.0 0.0 0.00 0.00 0.00 72 1019.7
20260502045424 46 0.0 0.0 0.00 0.00 0.00 72 1019.7
20260502044417 45 0.0 0.0 0.00 0.00 0.00 72 1019.1
20260502043925 45 0.0 0.0 0.00 0.00 0.00 73 1019.1
20260502042917 45 0.0 0.0 0.00 0.00 0.00 73 1019.5
20260502041919 44 0.0 0.0 0.00 0.00 0.00 73 1019.5
20260502040520 44 0.0 0.0 0.00 0.00 0.00 73 1019.3
20260502035421 44 0.0 0.0 0.00 0.00 0.00 73 1019.4
20260502034926 44 0.0 0.0 0.00 0.00 0.00 73 1019.4
20260502033921 44 0.0 0.0 0.00 0.00 0.00 73 1019.4
20260502032922 44 0.0 0.0 0.00 0.00 0.00 73 1019.4
20260502032426 44 0.0 0.0 0.00 0.00 0.00 73 1019.4
20260502031419 44 0.0 0.0 0.00 0.00 0.00 73 1019.4
20260502030926 44 0.0 0.0 0.00 0.00 0.00 73 1019.2
20260502025918 45 0.0 0.0 0.00 0.00 0.00 73 1019.2
20260502025425 45 0.0 0.0 0.00 0.00 0.00 73 1019.2
20260502024925 45 0.0 0.0 0.00 0.00 0.00 73 1019.6
20260502023921 45 0.0 0.0 0.00 0.00 0.00 73 1019.6
20260502023429 45 0.0 0.0 0.00 0.00 0.00 73 1019.6
20260502022925 45 0.0 0.0 0.00 0.00 0.00 73 1019.5
20260502021916 45 0.0 0.0 0.00 0.00 0.00 73 1019.5
20260502020918 45 0.0 0.0 0.00 0.00 0.00 73 1019.5
20260502020422 45 0.0 0.0 0.00 0.00 0.00 73 1019.5
20260502015925 46 0.0 0.0 0.00 0.00 0.00 73 1019.6
20260502014921 46 0.0 0.0 0.00 0.00 0.00 73 1019.5
20260502014426 46 0.0 0.0 0.00 0.00 0.00 72 1019.5
20260502013423 46 0.0 0.0 0.00 0.00 0.00 72 1019.5
20260502012922 46 0.0 0.0 0.00 0.00 0.00 72 1019.5
20260502012426 46 0.0 0.0 0.00 0.00 0.00 72 1019.5
20260502011419 46 0.0 0.0 0.00 0.00 0.00 72 1019.5
20260502010524 46 0.0 0.0 0.00 0.00 0.00 72 1019.7
20260502005416 46 0.0 0.0 0.00 0.00 0.00 72 1019.8